| time (UTC) | temp F | wind direction | speed MPH | gust MPH | rain 1hr in | rain 24hr in | rain mn in | humidity % | barometer mb |
| 20260904212008 | 68 | 89 | 1.0 | 2.0 | 0.00 | 0.00 | 0.00 | 74 | 1020.8 |
| 20260904211506 | 69 | 86 | 0.0 | 3.0 | 0.00 | 0.00 | 0.00 | 74 | 1020.8 |
| 20260904210007 | 69 | 45 | 0.0 | 1.0 | 0.00 | 0.00 | 0.00 | 74 | 1019.8 |
| 20260904205506 | 69 | 45 | 0.0 | 1.0 | 0.00 | 0.00 | 0.00 | 73 | 1019.8 |
| 20260904205007 | 69 | 0 | 0.0 | 0.0 | 0.00 | 0.00 | 0.00 | 73 | 1019.8 |
| 20260904204506 | 69 | 0 | 0.0 | 0.0 | 0.00 | 0.00 | 0.00 | 73 | 1019.8 |
| 20260904204007 | 69 | 0 | 0.0 | 0.0 | 0.00 | 0.00 | 0.00 | 73 | 1019.8 |
| 20260904203506 | 69 | 112 | 0.0 | 1.0 | 0.00 | 0.00 | 0.00 | 72 | 1019.8 |
| 20260904203006 | 69 | 112 | 0.0 | 1.0 | 0.00 | 0.00 | 0.00 | 73 | 1019.8 |
| 20260904202507 | 70 | 111 | 0.0 | 2.0 | 0.00 | 0.00 | 0.00 | 71 | 1020.8 |
| 20260904201506 | 70 | 112 | 2.0 | 2.0 | 0.00 | 0.00 | 0.00 | 71 | 1020.8 |
| 20260904201006 | 70 | 112 | 0.0 | 2.0 | 0.00 | 0.00 | 0.00 | 70 | 1020.8 |
| 20260904200506 | 70 | 0 | 0.0 | 0.0 | 0.00 | 0.00 | 0.00 | 70 | 1020.8 |
| 20260904200007 | 70 | 0 | 0.0 | 0.0 | 0.00 | 0.00 | 0.00 | 69 | 1020.8 |
| 20260904195506 | 71 | 112 | 0.0 | 2.0 | 0.00 | 0.00 | 0.00 | 69 | 1020.8 |
| 20260904195007 | 71 | 112 | 0.0 | 2.0 | 0.00 | 0.00 | 0.00 | 68 | 1020.8 |
| 20260904194506 | 71 | 112 | 0.0 | 2.0 | 0.00 | 0.00 | 0.00 | 69 | 1020.8 |
| 20260904194006 | 71 | 0 | 0.0 | 0.0 | 0.00 | 0.00 | 0.00 | 68 | 1020.8 |
| 20260904193006 | 72 | 111 | 0.0 | 2.0 | 0.00 | 0.00 | 0.00 | 66 | 1020.8 |
| 20260904192507 | 72 | 112 | 0.0 | 2.0 | 0.00 | 0.00 | 0.00 | 65 | 1020.8 |
| 20260904192006 | 72 | 112 | 0.0 | 2.0 | 0.00 | 0.00 | 0.00 | 65 | 1020.8 |
| 20260904191506 | 72 | 0 | 0.0 | 0.0 | 0.00 | 0.00 | 0.00 | 65 | 1020.8 |
| 20260904191006 | 72 | 0 | 0.0 | 0.0 | 0.00 | 0.00 | 0.00 | 64 | 1020.8 |
| 20260904190007 | 73 | 112 | 0.0 | 1.0 | 0.00 | 0.00 | 0.00 | 64 | 1020.8 |
| 20260904185506 | 73 | 112 | 0.0 | 2.0 | 0.00 | 0.00 | 0.00 | 63 | 1020.8 |
| 20260904185006 | 73 | 112 | 0.0 | 2.0 | 0.00 | 0.00 | 0.00 | 63 | 1020.8 |
| 20260904184507 | 73 | 182 | 1.0 | 2.0 | 0.00 | 0.00 | 0.00 | 62 | 1020.8 |
| 20260904184006 | 74 | 288 | 0.0 | 2.0 | 0.00 | 0.00 | 0.00 | 62 | 1019.8 |
| 20260904183506 | 74 | 344 | 0.0 | 2.0 | 0.00 | 0.00 | 0.00 | 61 | 1019.8 |
| 20260904183006 | 74 | 45 | 0.0 | 2.0 | 0.00 | 0.00 | 0.00 | 60 | 1019.8 |
| 20260904182507 | 75 | 38 | 0.0 | 2.0 | 0.00 | 0.00 | 0.00 | 59 | 1019.8 |
| 20260904182006 | 75 | 29 | 2.0 | 2.0 | 0.00 | 0.00 | 0.00 | 59 | 1019.8 |
| 20260904181507 | 75 | 164 | 0.0 | 2.0 | 0.00 | 0.00 | 0.00 | 58 | 1019.8 |
| 20260904181006 | 76 | 174 | 0.0 | 2.0 | 0.00 | 0.00 | 0.00 | 58 | 1019.8 |
| 20260904180507 | 76 | 196 | 2.0 | 2.0 | 0.00 | 0.00 | 0.00 | 58 | 1019.8 |
| 20260904180006 | 76 | 203 | 0.0 | 2.0 | 0.00 | 0.00 | 0.00 | 56 | 1019.8 |
| 20260904175507 | 77 | 203 | 0.0 | 2.0 | 0.00 | 0.00 | 0.00 | 56 | 1018.8 |
| 20260904175006 | 77 | 0 | 0.0 | 0.0 | 0.00 | 0.00 | 0.00 | 55 | 1018.8 |
| 20260904174006 | 78 | 225 | 0.0 | 2.0 | 0.00 | 0.00 | 0.00 | 54 | 1019.8 |
| 20260904173506 | 78 | 225 | 1.0 | 2.0 | 0.00 | 0.00 | 0.00 | 53 | 1019.8 |
| 20260904172506 | 79 | 239 | 0.0 | 2.0 | 0.00 | 0.00 | 0.00 | 52 | 1019.8 |
| 20260904171506 | 81 | 257 | 1.0 | 3.0 | 0.00 | 0.00 | 0.00 | 48 | 1019.8 |
| 20260904171006 | 81 | 235 | 1.0 | 3.0 | 0.00 | 0.00 | 0.00 | 47 | 1019.8 |
| 20260904165506 | 83 | 255 | 2.0 | 4.0 | 0.00 | 0.00 | 0.00 | 45 | 1019.8 |
| 20260904165008 | 83 | 249 | 3.0 | 4.0 | 0.00 | 0.00 | 0.00 | 44 | 1019.8 |
| 20260904164506 | 83 | 247 | 2.0 | 4.0 | 0.00 | 0.00 | 0.00 | 43 | 1019.8 |
| 20260904164006 | 84 | 249 | 2.0 | 4.0 | 0.00 | 0.00 | 0.00 | 43 | 1018.8 |
| 20260904163506 | 85 | 251 | 2.0 | 4.0 | 0.00 | 0.00 | 0.00 | 41 | 1018.8 |
| 20260904162506 | 85 | 256 | 3.0 | 4.0 | 0.00 | 0.00 | 0.00 | 40 | 1018.8 |
| 20260904162007 | 85 | 259 | 2.0 | 4.0 | 0.00 | 0.00 | 0.00 | 40 | 1018.8 |
| 20260904161007 | 86 | 189 | 4.0 | 9.0 | 0.00 | 0.00 | 0.00 | 37 | 1018.8 |
| 20260904160507 | 86 | 201 | 2.0 | 9.0 | 0.00 | 0.00 | 0.00 | 36 | 1018.8 |
| 20260904160006 | 86 | 210 | 4.0 | 7.0 | 0.00 | 0.00 | 0.00 | 36 | 1018.8 |
| 20260904155506 | 86 | 196 | 4.0 | 9.0 | 0.00 | 0.00 | 0.00 | 36 | 1019.8 |
| 20260904155007 | 86 | 199 | 5.0 | 10.0 | 0.00 | 0.00 | 0.00 | 37 | 1019.8 |
| 20260904154506 | 87 | 198 | 7.0 | 10.0 | 0.00 | 0.00 | 0.00 | 38 | 1019.8 |
| 20260904153506 | 87 | 205 | 4.0 | 11.0 | 0.00 | 0.00 | 0.00 | 36 | 1019.8 |
| 20260904153007 | 87 | 221 | 4.0 | 8.0 | 0.00 | 0.00 | 0.00 | 37 | 1019.8 |
| 20260904152006 | 87 | 212 | 5.0 | 8.0 | 0.00 | 0.00 | 0.00 | 37 | 1019.8 |
| 20260904151507 | 87 | 254 | 4.0 | 8.0 | 0.00 | 0.00 | 0.00 | 36 | 1019.8 |
| 20260904151006 | 87 | 238 | 2.0 | 8.0 | 0.00 | 0.00 | 0.00 | 37 | 1019.8 |
| 20260904150507 | 87 | 218 | 2.0 | 8.0 | 0.00 | 0.00 | 0.00 | 37 | 1019.8 |
| 20260904150006 | 88 | 287 | 2.0 | 9.0 | 0.00 | 0.00 | 0.00 | 38 | 1019.8 |
| 20260904145506 | 88 | 273 | 5.0 | 9.0 | 0.00 | 0.00 | 0.00 | 37 | 1019.8 |
| 20260904145006 | 88 | 219 | 4.0 | 9.0 | 0.00 | 0.00 | 0.00 | 37 | 1019.8 |
| 20260904144507 | 88 | 196 | 3.0 | 9.0 | 0.00 | 0.00 | 0.00 | 36 | 1019.8 |
| 20260904144006 | 88 | 187 | 4.0 | 9.0 | 0.00 | 0.00 | 0.00 | 37 | 1019.8 |
| 20260904143506 | 88 | 224 | 5.0 | 9.0 | 0.00 | 0.00 | 0.00 | 36 | 1019.8 |
| 20260904143006 | 88 | 265 | 3.0 | 9.0 | 0.00 | 0.00 | 0.00 | 38 | 1019.8 |
| 20260904142506 | 88 | 265 | 4.0 | 11.0 | 0.00 | 0.00 | 0.00 | 38 | 1020.8 |
| 20260904142006 | 88 | 267 | 4.0 | 13.0 | 0.00 | 0.00 | 0.00 | 37 | 1020.8 |
| 20260904141506 | 88 | 291 | 4.0 | 13.0 | 0.00 | 0.00 | 0.00 | 37 | 1020.8 |
| 20260904140006 | 88 | 272 | 6.0 | 13.0 | 0.00 | 0.00 | 0.00 | 36 | 1020.8 |
| 20260904135006 | 88 | 265 | 3.0 | 13.0 | 0.00 | 0.00 | 0.00 | 36 | 1020.8 |
| 20260904134506 | 88 | 272 | 4.0 | 13.0 | 0.00 | 0.00 | 0.00 | 36 | 1020.8 |
| 20260904134006 | 89 | 273 | 7.0 | 11.0 | 0.00 | 0.00 | 0.00 | 36 | 1020.8 |
| 20260904133006 | 89 | 275 | 5.0 | 9.0 | 0.00 | 0.00 | 0.00 | 36 | 1020.8 |
| 20260904132520 | 89 | 270 | 2.0 | 8.0 | 0.00 | 0.00 | 0.00 | 36 | 1020.8 |
| 20260904132017 | 89 | 263 | 5.0 | 11.0 | 0.00 | 0.00 | 0.00 | 36 | 1020.8 |
| 20260904131517 | 89 | 262 | 6.0 | 11.0 | 0.00 | 0.00 | 0.00 | 36 | 1020.8 |
| 20260904131028 | 89 | 267 | 6.0 | 11.0 | 0.00 | 0.00 | 0.00 | 36 | 1020.8 |
| 20260904130507 | 89 | 274 | 6.0 | 9.0 | 0.00 | 0.00 | 0.00 | 36 | 1020.8 |
| 20260904130006 | 90 | 282 | 5.0 | 9.0 | 0.00 | 0.00 | 0.00 | 36 | 1020.8 |
| 20260904125506 | 90 | 275 | 5.0 | 9.0 | 0.00 | 0.00 | 0.00 | 36 | 1020.8 |
| 20260904125006 | 90 | 282 | 2.0 | 8.0 | 0.00 | 0.00 | 0.00 | 36 | 1020.8 |
| 20260904124506 | 90 | 269 | 2.0 | 8.0 | 0.00 | 0.00 | 0.00 | 37 | 1020.8 |
| 20260904124006 | 90 | 235 | 3.0 | 6.0 | 0.00 | 0.00 | 0.00 | 37 | 1021.8 |
| 20260904123506 | 90 | 280 | 3.0 | 12.0 | 0.00 | 0.00 | 0.00 | 37 | 1021.8 |
| 20260904122506 | 90 | 254 | 2.0 | 9.0 | 0.00 | 0.00 | 0.00 | 36 | 1021.8 |
| 20260904120506 | 90 | 258 | 3.0 | 12.0 | 0.00 | 0.00 | 0.00 | 36 | 1021.8 |
| 20260904120006 | 89 | 268 | 5.0 | 12.0 | 0.00 | 0.00 | 0.00 | 37 | 1021.8 |
| 20260904115506 | 89 | 285 | 7.0 | 12.0 | 0.00 | 0.00 | 0.00 | 38 | 1021.8 |
| 20260904114506 | 89 | 236 | 3.0 | 5.0 | 0.00 | 0.00 | 0.00 | 38 | 1021.8 |
| 20260904113507 | 89 | 277 | 5.0 | 11.0 | 0.00 | 0.00 | 0.00 | 39 | 1022.8 |
| 20260904113006 | 89 | 279 | 5.0 | 11.0 | 0.00 | 0.00 | 0.00 | 39 | 1022.8 |
| 20260904112506 | 89 | 273 | 5.0 | 9.0 | 0.00 | 0.00 | 0.00 | 39 | 1021.8 |
| 20260904112006 | 89 | 274 | 2.0 | 9.0 | 0.00 | 0.00 | 0.00 | 40 | 1021.8 |
| 20260904111506 | 89 | 275 | 3.0 | 9.0 | 0.00 | 0.00 | 0.00 | 39 | 1021.8 |
| 20260904111006 | 89 | 265 | 5.0 | 9.0 | 0.00 | 0.00 | 0.00 | 40 | 1020.8 |
| 20260904110506 | 89 | 238 | 3.0 | 5.0 | 0.00 | 0.00 | 0.00 | 40 | 1020.8 |
| 20260904110006 | 89 | 292 | 2.0 | 8.0 | 0.00 | 0.00 | 0.00 | 39 | 1020.8 |
| 20260904105506 | 89 | 290 | 3.0 | 8.0 | 0.00 | 0.00 | 0.00 | 41 | 1021.8 |
| 20260904105006 | 89 | 282 | 3.0 | 6.0 | 0.00 | 0.00 | 0.00 | 41 | 1021.8 |
| 20260904103006 | 88 | 129 | 2.0 | 3.0 | 0.00 | 0.00 | 0.00 | 43 | 1021.8 |
| 20260904102506 | 87 | 129 | 2.0 | 3.0 | 0.00 | 0.00 | 0.00 | 42 | 1021.8 |
| 20260904102006 | 87 | 121 | 2.0 | 3.0 | 0.00 | 0.00 | 0.00 | 45 | 1021.8 |
| 20260904101506 | 87 | 185 | 2.0 | 3.0 | 0.00 | 0.00 | 0.00 | 44 | 1021.8 |
| 20260904101006 | 86 | 190 | 1.0 | 4.0 | 0.00 | 0.00 | 0.00 | 44 | 1020.8 |
| 20260904100505 | 86 | 179 | 2.0 | 4.0 | 0.00 | 0.00 | 0.00 | 43 | 1020.8 |
| 20260904100006 | 86 | 161 | 2.0 | 4.0 | 0.00 | 0.00 | 0.00 | 44 | 1020.8 |
| 20260904095505 | 85 | 151 | 2.0 | 3.0 | 0.00 | 0.00 | 0.00 | 46 | 1021.8 |
| 20260904095006 | 85 | 159 | 1.0 | 4.0 | 0.00 | 0.00 | 0.00 | 47 | 1021.8 |
| 20260904094006 | 84 | 160 | 2.0 | 4.0 | 0.00 | 0.00 | 0.00 | 48 | 1021.8 |
| 20260904093506 | 84 | 153 | 2.0 | 5.0 | 0.00 | 0.00 | 0.00 | 50 | 1021.8 |
| 20260904092506 | 83 | 100 | 2.0 | 4.0 | 0.00 | 0.00 | 0.00 | 49 | 1021.8 |
| 20260904092006 | 83 | 116 | 2.0 | 5.0 | 0.00 | 0.00 | 0.00 | 50 | 1021.8 |
| 20260904091506 | 82 | 119 | 3.0 | 6.0 | 0.00 | 0.00 | 0.00 | 51 | 1021.8 |
| 20260904091006 | 82 | 115 | 3.0 | 6.0 | 0.00 | 0.00 | 0.00 | 51 | 1021.8 |
| 20260904090506 | 82 | 112 | 3.0 | 6.0 | 0.00 | 0.00 | 0.00 | 52 | 1021.8 |
| 20260904090006 | 81 | 115 | 2.0 | 6.0 | 0.00 | 0.00 | 0.00 | 52 | 1021.8 |
| 20260904085506 | 81 | 132 | 3.0 | 6.0 | 0.00 | 0.00 | 0.00 | 51 | 1021.8 |
| 20260904085006 | 80 | 143 | 3.0 | 5.0 | 0.00 | 0.00 | 0.00 | 54 | 1021.8 |
| 20260904084506 | 80 | 148 | 4.0 | 6.0 | 0.00 | 0.00 | 0.00 | 55 | 1021.8 |
| 20260904084006 | 80 | 148 | 4.0 | 6.0 | 0.00 | 0.00 | 0.00 | 54 | 1021.8 |
| 20260904083006 | 79 | 118 | 4.0 | 6.0 | 0.00 | 0.00 | 0.00 | 55 | 1021.8 |
| 20260904082506 | 78 | 105 | 3.0 | 5.0 | 0.00 | 0.00 | 0.00 | 56 | 1021.8 |
| 20260904081506 | 77 | 110 | 3.0 | 5.0 | 0.00 | 0.00 | 0.00 | 57 | 1021.8 |
| 20260904081006 | 77 | 113 | 3.0 | 6.0 | 0.00 | 0.00 | 0.00 | 58 | 1022.8 |
| 20260904080506 | 76 | 108 | 3.0 | 6.0 | 0.00 | 0.00 | 0.00 | 58 | 1022.8 |
| 20260904080006 | 76 | 122 | 2.0 | 6.0 | 0.00 | 0.00 | 0.00 | 60 | 1022.8 |
| 20260904075506 | 75 | 144 | 2.0 | 6.0 | 0.00 | 0.00 | 0.00 | 61 | 1022.8 |
| 20260904075006 | 75 | 138 | 3.0 | 4.0 | 0.00 | 0.00 | 0.00 | 62 | 1022.8 |
| 20260904074506 | 74 | 132 | 2.0 | 4.0 | 0.00 | 0.00 | 0.00 | 62 | 1022.8 |
| 20260904074006 | 74 | 90 | 2.0 | 4.0 | 0.00 | 0.00 | 0.00 | 64 | 1021.8 |
| 20260904073506 | 73 | 99 | 3.0 | 6.0 | 0.00 | 0.00 | 0.00 | 65 | 1021.8 |
| 20260904073006 | 73 | 128 | 3.0 | 7.0 | 0.00 | 0.00 | 0.00 | 65 | 1021.8 |
| 20260904072506 | 72 | 116 | 4.0 | 7.0 | 0.00 | 0.00 | 0.00 | 67 | 1022.8 |
| 20260904072006 | 72 | 87 | 3.0 | 7.0 | 0.00 | 0.00 | 0.00 | 68 | 1022.8 |
| 20260904071506 | 71 | 101 | 2.0 | 7.0 | 0.00 | 0.00 | 0.00 | 70 | 1022.8 |
| 20260904071006 | 71 | 118 | 4.0 | 7.0 | 0.00 | 0.00 | 0.00 | 72 | 1022.8 |
| 20260904070506 | 70 | 133 | 3.0 | 6.0 | 0.00 | 0.00 | 0.00 | 73 | 1022.8 |
| 20260904065506 | 69 | 112 | 5.0 | 7.0 | 0.00 | 0.00 | 0.00 | 77 | 1021.8 |
| 20260904065006 | 68 | 72 | 4.0 | 6.0 | 0.00 | 0.00 | 0.00 | 77 | 1021.8 |
| 20260904064506 | 68 | 58 | 3.0 | 4.0 | 0.00 | 0.00 | 0.00 | 79 | 1021.8 |
| 20260904064006 | 67 | 111 | 2.0 | 4.0 | 0.00 | 0.00 | 0.00 | 82 | 1022.8 |
| 20260904063506 | 67 | 128 | 2.0 | 4.0 | 0.00 | 0.00 | 0.00 | 82 | 1022.8 |
| 20260904063006 | 66 | 138 | 2.0 | 4.0 | 0.00 | 0.00 | 0.00 | 84 | 1022.8 |
| 20260904062505 | 66 | 157 | 1.0 | 4.0 | 0.00 | 0.00 | 0.00 | 85 | 1022.8 |
| 20260904062006 | 65 | 148 | 3.0 | 4.0 | 0.00 | 0.00 | 0.00 | 86 | 1022.8 |
| 20260904061006 | 65 | 126 | 0.0 | 3.0 | 0.00 | 0.00 | 0.00 | 86 | 1021.8 |
| 20260904060505 | 64 | 327 | 0.0 | 2.0 | 0.00 | 0.00 | 0.00 | 86 | 1021.8 |
| 20260904060006 | 64 | 264 | 0.0 | 2.0 | 0.00 | 0.00 | 0.00 | 86 | 1021.8 |
| 20260904055506 | 64 | 156 | 0.0 | 2.0 | 0.00 | 0.00 | 0.00 | 86 | 1021.8 |
| 20260904055006 | 64 | 135 | 0.0 | 2.0 | 0.00 | 0.00 | 0.00 | 86 | 1021.8 |
| 20260904054506 | 64 | 145 | 0.0 | 3.0 | 0.00 | 0.00 | 0.00 | 86 | 1021.8 |
| 20260904054006 | 64 | 163 | 1.0 | 3.0 | 0.00 | 0.00 | 0.00 | 87 | 1021.8 |
| 20260904053506 | 63 | 322 | 0.0 | 3.0 | 0.00 | 0.00 | 0.00 | 86 | 1021.8 |
| 20260904053006 | 63 | 155 | 2.0 | 3.0 | 0.00 | 0.00 | 0.00 | 86 | 1021.8 |
| 20260904052005 | 63 | 283 | 2.0 | 2.0 | 0.00 | 0.00 | 0.00 | 85 | 1021.8 |
| 20260904051506 | 63 | 251 | 1.0 | 2.0 | 0.00 | 0.00 | 0.00 | 85 | 1021.8 |
| 20260904050506 | 63 | 240 | 2.0 | 2.0 | 0.00 | 0.00 | 0.00 | 85 | 1020.8 |
| 20260904050006 | 63 | 248 | 0.0 | 2.0 | 0.00 | 0.00 | 0.00 | 85 | 1020.8 |
| 20260904045506 | 63 | 291 | 1.0 | 3.0 | 0.00 | 0.00 | 0.00 | 85 | 1021.8 |
| 20260904045006 | 63 | 249 | 2.0 | 3.0 | 0.00 | 0.00 | 0.00 | 85 | 1021.8 |
| 20260904044006 | 63 | 3 | 2.0 | 3.0 | 0.00 | 0.00 | 0.00 | 86 | 1021.8 |
| 20260904043506 | 63 | 135 | 2.0 | 3.0 | 0.00 | 0.00 | 0.00 | 85 | 1021.8 |
| 20260904043005 | 63 | 136 | 0.0 | 2.0 | 0.00 | 0.00 | 0.00 | 85 | 1021.8 |
| 20260904042506 | 63 | 237 | 0.0 | 2.0 | 0.00 | 0.00 | 0.00 | 85 | 1021.8 |
| 20260904041006 | 63 | 337 | 0.0 | 4.0 | 0.00 | 0.00 | 0.00 | 85 | 1021.8 |
| 20260904040506 | 63 | 82 | 1.0 | 4.0 | 0.00 | 0.00 | 0.00 | 84 | 1021.8 |
| 20260904035506 | 63 | 5 | 0.0 | 2.0 | 0.00 | 0.00 | 0.00 | 85 | 1020.8 |
| 20260904035005 | 63 | 63 | 0.0 | 2.0 | 0.00 | 0.00 | 0.00 | 84 | 1020.8 |
| 20260904034506 | 63 | 90 | 0.0 | 2.0 | 0.00 | 0.00 | 0.00 | 84 | 1020.8 |
| 20260904033506 | 63 | 0 | 0.0 | 0.0 | 0.00 | 0.00 | 0.00 | 84 | 1020.8 |
| 20260904033006 | 63 | 262 | 0.0 | 2.0 | 0.00 | 0.00 | 0.00 | 84 | 1020.8 |
| 20260904032006 | 63 | 268 | 0.0 | 2.0 | 0.00 | 0.00 | 0.00 | 84 | 1021.8 |
| 20260904031506 | 64 | 267 | 1.0 | 2.0 | 0.00 | 0.00 | 0.00 | 82 | 1021.8 |
| 20260904030505 | 64 | 203 | 0.0 | 2.0 | 0.00 | 0.00 | 0.00 | 82 | 1021.8 |
| 20260904030006 | 64 | 238 | 0.0 | 2.0 | 0.00 | 0.00 | 0.00 | 84 | 1021.8 |
| 20260904025506 | 64 | 298 | 1.0 | 2.0 | 0.00 | 0.00 | 0.00 | 84 | 1021.8 |
| 20260904025006 | 64 | 346 | 1.0 | 2.0 | 0.00 | 0.00 | 0.00 | 82 | 1021.8 |
| 20260904024505 | 64 | 89 | 0.0 | 2.0 | 0.00 | 0.00 | 0.00 | 82 | 1021.8 |
| 20260904024006 | 64 | 158 | 0.0 | 2.0 | 0.00 | 0.00 | 0.00 | 82 | 1020.8 |
| 20260904023505 | 64 | 293 | 1.0 | 2.0 | 0.00 | 0.00 | 0.00 | 82 | 1020.8 |
| 20260904023006 | 64 | 9 | 0.0 | 2.0 | 0.00 | 0.00 | 0.00 | 82 | 1020.8 |
| 20260904022505 | 64 | 27 | 0.0 | 2.0 | 0.00 | 0.00 | 0.00 | 82 | 1021.8 |
| 20260904022006 | 64 | 24 | 1.0 | 3.0 | 0.00 | 0.00 | 0.00 | 81 | 1021.8 |
| 20260904021505 | 64 | 22 | 1.0 | 3.0 | 0.00 | 0.00 | 0.00 | 81 | 1021.8 |
| 20260904021006 | 64 | 182 | 0.0 | 2.0 | 0.00 | 0.00 | 0.00 | 81 | 1020.8 |
| 20260904020505 | 64 | 215 | 0.0 | 2.0 | 0.00 | 0.00 | 0.00 | 82 | 1020.8 |
| 20260904015506 | 64 | 258 | 1.0 | 3.0 | 0.00 | 0.00 | 0.00 | 81 | 1021.8 |
| 20260904015006 | 65 | 308 | 1.0 | 3.0 | 0.00 | 0.00 | 0.00 | 81 | 1021.8 |
| 20260904014005 | 65 | 87 | 0.0 | 2.0 | 0.00 | 0.00 | 0.00 | 81 | 1020.8 |
| 20260904013506 | 65 | 45 | 0.0 | 3.0 | 0.00 | 0.00 | 0.00 | 81 | 1020.8 |
| 20260904013005 | 64 | 55 | 2.0 | 4.0 | 0.00 | 0.00 | 0.00 | 81 | 1020.8 |
| 20260904012006 | 64 | 157 | 1.0 | 3.0 | 0.00 | 0.00 | 0.00 | 81 | 1021.8 |
| 20260904011505 | 64 | 229 | 0.0 | 3.0 | 0.00 | 0.00 | 0.00 | 81 | 1021.8 |
| 20260904011006 | 64 | 307 | 2.0 | 3.0 | 0.00 | 0.00 | 0.00 | 82 | 1021.8 |
| 20260904010505 | 64 | 326 | 1.0 | 2.0 | 0.00 | 0.00 | 0.00 | 80 | 1021.8 |
| 20260904010006 | 64 | 337 | 0.0 | 2.0 | 0.00 | 0.00 | 0.00 | 80 | 1021.8 |
| 20260904005505 | 65 | 340 | 0.0 | 2.0 | 0.00 | 0.00 | 0.00 | 80 | 1021.8 |
| 20260904005006 | 65 | 2 | 1.0 | 2.0 | 0.00 | 0.00 | 0.00 | 80 | 1021.8 |
| 20260904004506 | 65 | 13 | 1.0 | 2.0 | 0.00 | 0.00 | 0.00 | 80 | 1021.8 |
| 20260904004005 | 65 | 32 | 0.0 | 2.0 | 0.00 | 0.00 | 0.00 | 80 | 1021.8 |
| 20260904003506 | 65 | 78 | 1.0 | 2.0 | 0.00 | 0.00 | 0.00 | 79 | 1021.8 |
| 20260904003005 | 65 | 112 | 1.0 | 2.0 | 0.00 | 0.00 | 0.00 | 79 | 1021.8 |
| 20260904002506 | 65 | 0 | 0.0 | 0.0 | 0.00 | 0.00 | 0.00 | 80 | 1021.8 |
| 20260904002005 | 65 | 112 | 0.0 | 2.0 | 0.00 | 0.00 | 0.00 | 79 | 1021.8 |
| 20260904001506 | 65 | 112 | 0.0 | 2.0 | 0.00 | 0.00 | 0.00 | 79 | 1021.8 |
| 20260904001005 | 65 | 112 | 0.0 | 1.0 | 0.00 | 0.00 | 0.00 | 79 | 1021.8 |
| 20260904000506 | 65 | 112 | 0.0 | 2.0 | 0.00 | 0.00 | 0.00 | 78 | 1021.8 |
| 20260904000006 | 65 | 109 | 1.0 | 2.0 | 0.00 | 0.00 | 0.00 | 78 | 1021.8 |
| 20260903235505 | 65 | 90 | 0.0 | 1.0 | 0.00 | 0.00 | 0.00 | 78 | 1021.8 |
| 20260903235006 | 65 | 0 | 0.0 | 0.0 | 0.00 | 0.00 | 0.00 | 78 | 1021.8 |
| 20260903234006 | 66 | 90 | 0.0 | 1.0 | 0.00 | 0.00 | 0.00 | 78 | 1021.8 |
| 20260903233505 | 66 | 90 | 0.0 | 2.0 | 0.00 | 0.00 | 0.00 | 78 | 1021.8 |
| 20260903233005 | 66 | 88 | 0.0 | 3.0 | 0.00 | 0.00 | 0.00 | 78 | 1021.8 |
| 20260903232506 | 66 | 69 | 2.0 | 3.0 | 0.00 | 0.00 | 0.00 | 77 | 1020.8 |
| 20260903231006 | 66 | 161 | 0.0 | 2.0 | 0.00 | 0.00 | 0.00 | 77 | 1021.8 |
| 20260903230007 | 66 | 270 | 0.0 | 1.0 | 0.00 | 0.00 | 0.00 | 77 | 1021.8 |
| 20260903225506 | 66 | 0 | 0.0 | 0.0 | 0.00 | 0.00 | 0.00 | 76 | 1021.8 |
| 20260903225006 | 66 | 225 | 0.0 | 2.0 | 0.00 | 0.00 | 0.00 | 76 | 1021.8 |
| 20260903224506 | 66 | 225 | 0.0 | 2.0 | 0.00 | 0.00 | 0.00 | 76 | 1021.8 |
| 20260903223506 | 66 | 106 | 1.0 | 2.0 | 0.00 | 0.00 | 0.00 | 76 | 1021.8 |
| 20260903223005 | 66 | 69 | 0.0 | 2.0 | 0.00 | 0.00 | 0.00 | 75 | 1021.8 |
| 20260903222506 | 66 | 91 | 1.0 | 3.0 | 0.00 | 0.00 | 0.00 | 75 | 1020.8 |
| 20260903222006 | 66 | 95 | 2.0 | 3.0 | 0.00 | 0.00 | 0.00 | 76 | 1020.8 |
| 20260903221005 | 66 | 112 | 0.0 | 1.0 | 0.00 | 0.00 | 0.00 | 75 | 1021.8 |
| 20260903220506 | 66 | 112 | 0.0 | 1.0 | 0.00 | 0.00 | 0.00 | 75 | 1021.8 |
| 20260903220012 | 66 | 0 | 0.0 | 0.0 | 0.00 | 0.00 | 0.00 | 75 | 1021.8 |
| 20260903215505 | 66 | 0 | 0.0 | 0.0 | 0.00 | 0.00 | 0.00 | 74 | 1021.8 |
| 20260903215006 | 66 | 111 | 0.0 | 2.0 | 0.00 | 0.00 | 0.00 | 74 | 1021.8 |
| 20260903214006 | 66 | 0 | 0.0 | 0.0 | 0.00 | 0.00 | 0.00 | 74 | 1021.8 |
| 20260903213505 | 66 | 23 | 0.0 | 1.0 | 0.00 | 0.00 | 0.00 | 73 | 1021.8 |
| 20260903213006 | 67 | 23 | 0.0 | 2.0 | 0.00 | 0.00 | 0.00 | 73 | 1021.8 |
| 20260903212506 | 67 | 23 | 0.0 | 2.0 | 0.00 | 0.00 | 0.00 | 72 | 1020.8 |